White Plains, CT

11:55 AM EST on December 12, 2019 (GMT -0500)
Westchester County

Weather History for KHPN - August, 2019

Change the Weather History Date:

Monday, August 12, 2019

  Actual Average Record
Temperature  
Mean Temperature 72 °F -  
Max Temperature 84 °F 80 °F 93 °F (2002)
Min Temperature 61 °F 63 °F 53 °F (1979)
Cooling Degree Days 6    
Growing Degree Days 22 (Base 50)    
Moisture  
Dew Point 58 °F    
Average Humidity 63    
Maximum Humidity 87    
Minimum Humidity 38    
Precipitation  
Precipitation 0.00 in - - ()
Sea Level Pressure  
Sea Level Pressure 29.94 in    
Wind  
Wind Speed 4 mph (West)    
Max Wind Speed 9 mph    
Max Gust Speed -    
Visibility 10 miles    
Events      
Averages and records for this station are not official NWS values.
T = Trace of Precipitation, MM = Missing Value Source: NWS Daily Summary

Daily Weather History Graph

Daily Weather History Graph

Search for Another Location

Airport or City:

Astronomy

Aug. 12, 2019 Rise Set
Actual Time 6:01 AM EDT 7:57 PM EDT
Civil Twilight 5:31 AM EDT 8:27 PM EDT
Nautical Twilight 4:54 AM EDT 9:03 PM EDT
Astronomical Twilight 4:15 AM EDT 9:43 PM EDT
Moon 6:26 PM EDT 3:06 AM EDT
Length of Visible Light 14h 56m
Length of Day
13h 56m
Waxing Gibbous, 93% of the Moon is Illuminated
Aug 12
Waxing Gibbous
Aug 15
Full
Aug 23
Last Quarter
Aug 30
New
Sep 5
First Quarter

Hourly Weather History & Observations

Time (EDT) Temp. Heat Index Dew Point Humidity Pressure Visibility Wind Dir Wind Speed Gust Speed Precip Events Conditions
12:56 AM 64.0 °F - 55.9 °F 75% 29.99 in 10.0 mi WNW 3.5 mph - N/A   Clear
1:56 AM 62.1 °F - 55.9 °F 80% 29.99 in 10.0 mi Calm Calm - N/A   Clear
2:56 AM 62.1 °F - 57.9 °F 86% 29.99 in 10.0 mi NW 5.8 mph - N/A   Clear
3:56 AM 62.1 °F - 57.9 °F 86% 29.99 in 10.0 mi NW 4.6 mph - N/A   Clear
4:56 AM 62.1 °F - 57.0 °F 84% 29.99 in 10.0 mi NW 4.6 mph - N/A   Clear
5:56 AM 61.0 °F - 57.0 °F 87% 29.99 in 10.0 mi NW 4.6 mph - N/A   Clear
6:56 AM 64.0 °F - 60.1 °F 87% 29.99 in 10.0 mi WNW 3.5 mph - N/A   Clear
7:56 AM 69.1 °F - 60.1 °F 73% 29.99 in 10.0 mi West 4.6 mph - N/A   Clear
8:56 AM 71.1 °F - 57.9 °F 63% 29.99 in 10.0 mi WSW 3.5 mph - N/A   Clear
9:56 AM 73.9 °F - 57.0 °F 55% 29.99 in 10.0 mi SW 3.5 mph - N/A   Clear
10:56 AM 78.1 °F - 55.9 °F 46% 29.98 in 10.0 mi West 6.9 mph - N/A   Clear
11:56 AM 80.1 °F 80.1 °F 55.0 °F 42% 29.96 in 10.0 mi West 6.9 mph - N/A   Partly Cloudy
12:56 PM 81.0 °F 80.8 °F 55.9 °F 42% 29.95 in 10.0 mi West 8.1 mph - N/A   Scattered Clouds
1:56 PM 82.0 °F 81.4 °F 55.0 °F 39% 29.93 in 10.0 mi NW 9.2 mph - N/A   Scattered Clouds
2:56 PM 82.0 °F 81.3 °F 54.0 °F 38% 29.90 in 10.0 mi Variable 6.9 mph - N/A   Scattered Clouds
3:56 PM 82.9 °F 82.0 °F 55.0 °F 38% 29.90 in 10.0 mi West 6.9 mph - N/A   Scattered Clouds
4:56 PM 82.9 °F 82.1 °F 55.9 °F 39% 29.88 in 10.0 mi WSW 5.8 mph - N/A   Partly Cloudy
5:56 PM 82.0 °F 81.6 °F 55.9 °F 41% 29.87 in 10.0 mi West 6.9 mph - N/A   Partly Cloudy
6:56 PM 81.0 °F 80.8 °F 55.9 °F 42% 29.88 in 10.0 mi Calm Calm - N/A   Clear
7:56 PM 75.0 °F - 62.1 °F 64% 29.87 in 10.0 mi South 4.6 mph - N/A   Clear
8:56 PM 72.0 °F - 63.0 °F 73% 29.88 in 10.0 mi South 5.8 mph - N/A   Clear
9:56 PM 73.0 °F - 64.0 °F 73% 29.87 in 10.0 mi South 3.5 mph - N/A   Clear
10:56 PM 70.0 °F - 64.9 °F 84% 29.87 in 10.0 mi Calm Calm - N/A   Clear
11:56 PM 72.0 °F - 66.0 °F 81% 29.86 in 10.0 mi South 3.5 mph - N/A   Clear